(88) Thisbe
ephemeris date magn radius delta ra dec elong phase
Today17 Sep 202513.43.221 AU4.082 AU09h52m+09°56'27.3°8.2°
Opposition6 Mar 202611.63.127 AU2.140 AU10h57m-01°07'172.8°2.3°
(88) Thisbe - 2025-09-17
astro.vanbuitenen.nl


 
-1 year
-1 month
-1 day
Now
+1 day
+1 month
+1 year

The interactive orbit chart above shows the body's path through the solar system and its position at the given date. Green and blue lines are shown perpendicular to the ecliptic plane: Green if the path is above the ecliptic plane, blue if it is below. (Left-click and drag to rotate the view; Right-click and drag to move the view; Use scroll wheel to zoom in our out.)

The orbital elements of Thisbe are:

            e (Eccentricity)                : 0.1645371
            a (Semimajor axis)              : 2.7687422
            i (Inclination)                 : 5.22640
            Ω (Longitude of ascending node) : 276.32535
            ω (Argument of perihelion)      : 36.93816
            M (Mean anomaly)                : 158.72262
            Epoch                           : 2025 May 05

            L (Longitude of perihelion)     : 313.14892
            B (Latitude of perihelion)      : 3.13803
            P (Orbital period in years)     : 4.61            
        

The light curve chart below shows the estimated development of the minor planet's magnitude.


The all-sky chart below shows the path of the minor planet over the same period as the light curve. The current position is marked yellow.





The following chart shows the path of the minor planet in the next few days. The field of view is optimized for (~10x50) binoculars and finderscopes. A more printer-friendly version of the same chart can be found below.




Ephemerides:
Date       Time       RA (2000)    DEC (2000)    delta   radius  elong  phase   PA    magn
2025-09-17 00:00 UT   09 52 30.6   +09 56 19     4.082    3.221   27.3    8.2   284   13.4 
2025-09-17 22:03 UT   09 53 39.9   +09 49 24     4.075    3.221   27.9    8.4   285   13.4 
2025-09-18 00:00 UT   09 53 46.0   +09 48 48     4.075    3.221   27.9    8.4   285   13.4 
2025-09-19 00:00 UT   09 55 01.1   +09 41 16     4.068    3.221   28.6    8.6   285   13.4 
2025-09-20 00:00 UT   09 56 16.1   +09 33 44     4.060    3.221   29.2    8.7   285   13.4 
2025-09-21 00:00 UT   09 57 30.8   +09 26 10     4.053    3.221   29.8    8.9   285   13.4 
2025-09-22 00:00 UT   09 58 45.2   +09 18 36     4.045    3.220   30.5    9.1   285   13.4 
2025-09-23 00:00 UT   09 59 59.4   +09 11 01     4.037    3.220   31.1    9.3   285   13.4 
2025-09-24 00:00 UT   10 01 13.4   +09 03 25     4.029    3.220   31.8    9.4   286   13.4 
2025-09-25 00:00 UT   10 02 27.0   +08 55 49     4.021    3.220   32.4    9.6   286   13.4 
2025-09-26 00:00 UT   10 03 40.4   +08 48 12     4.013    3.220   33.1    9.8   286   13.4 
2025-09-27 00:00 UT   10 04 53.6   +08 40 35     4.005    3.219   33.7   10.0   286   13.4 
2025-09-28 00:00 UT   10 06 06.4   +08 32 57     3.996    3.219   34.4   10.1   286   13.4 
2025-09-29 00:00 UT   10 07 19.0   +08 25 18     3.988    3.219   35.0   10.3   286   13.5 
2025-09-30 00:00 UT   10 08 31.3   +08 17 40     3.979    3.219   35.7   10.5   286   13.5 
2025-10-01 00:00 UT   10 09 43.3   +08 10 00     3.970    3.219   36.3   10.6   287   13.5 
2025-10-02 00:00 UT   10 10 55.0   +08 02 21     3.961    3.218   37.0   10.8   287   13.5 
2025-10-03 00:00 UT   10 12 06.4   +07 54 41     3.952    3.218   37.7   11.0   287   13.5 
2025-10-04 00:00 UT   10 13 17.5   +07 47 01     3.942    3.218   38.3   11.1   287   13.5 
2025-10-05 00:00 UT   10 14 28.3   +07 39 21     3.933    3.218   39.0   11.3   287   13.5 
2025-10-06 00:00 UT   10 15 38.8   +07 31 40     3.923    3.217   39.7   11.4   287   13.5 
2025-10-07 00:00 UT   10 16 49.0   +07 23 60     3.913    3.217   40.3   11.6   287   13.5 
2025-10-08 00:00 UT   10 17 58.9   +07 16 19     3.903    3.217   41.0   11.8   288   13.5 
2025-10-09 00:00 UT   10 19 08.5   +07 08 39     3.893    3.217   41.7   11.9   288   13.5 
2025-10-10 00:00 UT   10 20 17.7   +07 00 58     3.883    3.216   42.3   12.1   288   13.5 
2025-10-11 00:00 UT   10 21 26.6   +06 53 18     3.873    3.216   43.0   12.2   288   13.5 
2025-10-12 00:00 UT   10 22 35.2   +06 45 37     3.863    3.216   43.7   12.4   288   13.5 
2025-10-13 00:00 UT   10 23 43.5   +06 37 57     3.852    3.215   44.4   12.5   288   13.5 


    Terminology:
            
    delta:  distance between minor planet and earth in AU
    radius: distance between minor planet and sun in AU
    magn:   magnitude (brightness) estimate    
    ra:     right ascension in hours (24h = 360deg)
    dec:    declination in degrees
    elong:  elongation in degrees (angle sun-earth-minor planet)    
    phase:  phase angle in degrees (angle sun-minor planet-earth)        
    AU:     Astronomical Unit (mean distance between earth and sun: 149597870.7 km
    

Orbital elements provided by the MPC (Minor Planet Center).
Calculations by a modified version of AAPlus, a C# implementation of the AA+ project by PJ Naughter from the algorithms presented in the book "Astronomical Algorithms" by Jean Meeus.
NGC2000 dso catalog and star labels from VizieR as provided by the Strasbourg astronomical Data Center.
Tycho2 catalog from the ESO archive.